Погода в Нагорном

Россия / Камчатский край     53°07′23″N   158°30′44″E
темп.,
°C
ветер,
м/с
пор.,
м/с
влажн.,
%
обл.,
%
осадки,
мм/ч
давл.,
гПа
погр.,
м
6 декабря, пн
пн600:00−8зсз7137617 0.0 1006831
03:00−9сз458779 0.0 1007157
06:00−6зсз8158132 0.0 1009938
09:00−3зсз10177137 0.0 10101262
12:00−1зсз1219675 0.0 10121437
15:000зсз9156516 0.0 10131196
18:00−2сз512725 0.0 1015939
21:00−3сз347975 0.0 1015121
7 декабря, вт
вт700:00−4сз338278 0.0 1015127
03:00−3сз228831 0.0 101394
06:00−2с119794 0.7 101171
09:00−1всв119593 0.8 101055
12:00+1юв229285 1.3 100897
15:00+2ю379037 0.4 1005295
18:00+1з11167548 1.1 10061191
21:00−1з1319704 0.0 10081473
8 декабря, ср
ср800:00−3з1622684 0.1 10101699
03:00−4з1420738 0.1 10121542
06:00−5з1318715 0.1 10151463
09:00−6з614703 0.0 10171074
12:00−4з9157047 0.0 10171475
15:00−3з1015652 0.0 10161421
18:00−5з613725 0.0 1015949
21:00−5зюз4117615 0.0 1014844
9 декабря, чт
чт900:00−3з7137694 0.1 10121104
03:00−4зсз9157483 0.1 10111210
06:00−4зсз1219738 0.1 10111467
09:00−4зсз1222694 0.0 10121706
12:00−4зсз1321685 0.0 10152014
15:00−4зсз12206443 0.0 10162011
18:00−5зсз1118685 0.0 10191397
21:00−5зсз1017640 0.0 10221167
10 декабря, пт
пт1000:00−6зсз715715 0.0 1024823
03:00−10сз568125 0.0 1025175
06:00−10сз66826 0.0 1026174
09:00−10сз678259 0.0 1028159
12:00−8сз677936 0.0 1028185
15:00−4сз457393 0.0 1027207
18:00−5ссз2277100 0.0 1028123
21:00−6ссз2282100 0.0 1028106